Location: ??????????
(42.1626°N, 44.1160°E)
Time: 07:36:54
(UTC+00:00)

Cosmos 1844 - Pass Details

Date: 21 June 2021
Orbit: 823 x 867 km, 70.9° (Epoch: 03 August)

Event Time Altitude Azimuth Distance (km) Brightness Sun altitude
Rises 18:29:20 0° 331° (NNW) 3,371 8.7 -15.1°
Reaches altitude 10° 18:31:49 10° 326° (NNW) 2,437 7.5 -15.4°
Maximum altitude 18:37:13 53° 252° (WSW) 1,018 4.2 -16.0°
Enters shadow 18:41:04 19° 182° (S) 1,882 5.1 -16.4°
